FDX332E EGPH-EIDW

Flight info

Callsign FDX332E
Flight time 0h 40m
Altitude 22000
Route GOSAM P600 TRN DCT BLACA P620 NIMAT NIMAT4L
Aircraft B738/M-SDE2E3FGHIRWXY/LB1

Departure

Time 2026-05-05 19:45
Airport Edinburgh Airport (EGPH)

Arrival

Time 2026-05-05 20:26
Airport Dublin Airport (EIDW)
Time Latitude Longitude Altitude Speed Heading
2026-05-05 19:17 55.95143 -3.35362 112 ft 0 kts 28°
2026-05-05 19:35 55.95113 -3.35378 112 ft 4 kts 347°
2026-05-05 19:35 55.95092 -3.35357 115 ft 4 kts 304°
2026-05-05 19:35 55.95088 -3.35346 111 ft 0 kts 298°
2026-05-05 19:38 55.95088 -3.35348 112 ft 1 kts 298°
2026-05-05 19:38 55.95097 -3.35378 116 ft 5 kts 298°
2026-05-05 19:38 55.95122 -3.35456 112 ft 10 kts 298°
2026-05-05 19:39 55.95159 -3.35576 115 ft 12 kts 298°
2026-05-05 19:39 55.95198 -3.35703 115 ft 12 kts 298°
2026-05-05 19:39 55.95242 -3.35812 114 ft 10 kts 317°
2026-05-05 19:39 55.95251 -3.35928 113 ft 10 kts 248°
2026-05-05 19:40 55.95214 -3.36043 113 ft 12 kts 238°
2026-05-05 19:40 55.95165 -3.36187 114 ft 14 kts 239°
2026-05-05 19:40 55.95115 -3.36335 114 ft 14 kts 238°
2026-05-05 19:40 55.95067 -3.36480 114 ft 14 kts 239°
2026-05-05 19:41 55.95010 -3.36646 113 ft 17 kts 239°
2026-05-05 19:41 55.94946 -3.36835 113 ft 19 kts 238°
2026-05-05 19:41 55.94878 -3.37039 115 ft 19 kts 239°
2026-05-05 19:41 55.94815 -3.37220 115 ft 15 kts 238°
2026-05-05 19:42 55.94762 -3.37381 112 ft 15 kts 239°
2026-05-05 19:42 55.94709 -3.37534 113 ft 14 kts 238°
2026-05-05 19:42 55.94659 -3.37681 113 ft 14 kts 239°
2026-05-05 19:42 55.94608 -3.37832 115 ft 16 kts 239°
2026-05-05 19:43 55.94545 -3.38017 115 ft 19 kts 238°
2026-05-05 19:43 55.94462 -3.38265 114 ft 27 kts 239°
2026-05-05 19:43 55.94362 -3.38559 113 ft 27 kts 239°
2026-05-05 19:43 55.94287 -3.38798 113 ft 16 kts 258°
2026-05-05 19:44 55.94337 -3.38923 114 ft 13 kts 329°
2026-05-05 19:44 55.94414 -3.38955 111 ft 10 kts 31°
2026-05-05 19:44 55.94434 -3.38916 113 ft 0 kts 57°
2026-05-05 19:45 55.94528 -3.38642 112 ft 71 kts 59°
2026-05-05 19:45 55.94943 -3.37423 117 ft 157 kts 60°
2026-05-05 19:45 55.95601 -3.35555 698 ft 193 kts 59°
2026-05-05 19:45 55.96395 -3.33494 1728 ft 202 kts 47°
2026-05-05 19:46 55.97460 -3.31850 2869 ft 209 kts 43°
2026-05-05 19:46 55.98587 -3.30077 3525 ft 226 kts 43°
2026-05-05 19:46 55.99931 -3.28370 4048 ft 247 kts 20°
2026-05-05 19:46 56.01576 -3.28313 5092 ft 250 kts 344°
2026-05-05 19:47 56.03034 -3.30012 5690 ft 255 kts 310°
2026-05-05 19:47 56.03679 -3.32963 5995 ft 265 kts 276°
2026-05-05 19:47 56.03601 -3.34736 5972 ft 272 kts 258°
2026-05-05 19:47 56.02945 -3.37911 6007 ft 273 kts 252°
2026-05-05 19:48 56.02314 -3.41095 5998 ft 270 kts 255°
2026-05-05 19:48 56.01757 -3.44284 5991 ft 268 kts 256°
2026-05-05 19:48 56.01255 -3.47477 6003 ft 266 kts 258°
2026-05-05 19:48 56.00790 -3.50670 5998 ft 266 kts 258°
2026-05-05 19:49 56.00333 -3.53871 6008 ft 266 kts 258°
2026-05-05 19:49 56.00031 -3.55987 6001 ft 266 kts 258°
2026-05-05 19:49 55.99574 -3.59198 6001 ft 267 kts 258°
2026-05-05 19:49 55.98958 -3.63502 6006 ft 268 kts 257°
2026-05-05 19:50 55.98652 -3.65638 6009 ft 268 kts 258°
2026-05-05 19:50 55.98188 -3.68872 6006 ft 269 kts 257°
2026-05-05 19:50 55.97571 -3.73161 6004 ft 270 kts 257°
2026-05-05 19:50 55.97103 -3.76410 6011 ft 270 kts 257°
2026-05-05 19:51 55.96786 -3.78607 6005 ft 271 kts 257°
2026-05-05 19:51 55.96315 -3.81861 6008 ft 271 kts 257°
2026-05-05 19:51 55.95846 -3.85113 6086 ft 272 kts 257°
2026-05-05 19:51 55.95372 -3.88375 6899 ft 269 kts 257°
2026-05-05 19:52 55.94907 -3.91565 8042 ft 263 kts 258°
2026-05-05 19:52 55.94442 -3.94752 8955 ft 268 kts 258°
2026-05-05 19:52 55.93898 -3.97974 9833 ft 275 kts 251°
2026-05-05 19:52 55.93047 -4.01072 10579 ft 286 kts 242°
2026-05-05 19:53 55.91831 -4.04100 10811 ft 315 kts 232°
2026-05-05 19:53 55.90180 -4.06929 11018 ft 344 kts 221°
2026-05-05 19:53 55.88157 -4.09418 11438 ft 360 kts 216°
2026-05-05 19:53 55.86029 -4.11837 12181 ft 365 kts 215°
2026-05-05 19:54 55.83911 -4.14251 13027 ft 367 kts 216°
2026-05-05 19:54 55.81769 -4.16733 13840 ft 370 kts 216°
2026-05-05 19:54 55.79610 -4.19259 14538 ft 373 kts 216°
2026-05-05 19:54 55.77447 -4.21841 15240 ft 376 kts 217°
2026-05-05 19:55 55.75288 -4.24510 15940 ft 380 kts 218°
2026-05-05 19:55 55.73111 -4.27207 16636 ft 383 kts 218°
2026-05-05 19:55 55.70915 -4.29916 17308 ft 387 kts 218°
2026-05-05 19:55 55.68698 -4.32656 17971 ft 391 kts 218°
2026-05-05 19:56 55.66456 -4.35429 18590 ft 394 kts 218°
2026-05-05 19:56 55.64199 -4.38217 19152 ft 397 kts 218°
2026-05-05 19:56 55.61923 -4.41024 19740 ft 400 kts 217°
2026-05-05 19:56 55.59633 -4.43845 20320 ft 402 kts 217°
2026-05-05 19:57 55.57329 -4.46678 20865 ft 405 kts 217°
2026-05-05 19:57 55.55004 -4.49533 21408 ft 408 kts 217°
2026-05-05 19:57 55.52660 -4.52405 21941 ft 411 kts 217°
2026-05-05 19:57 55.50289 -4.55309 22062 ft 420 kts 217°
2026-05-05 19:58 55.47841 -4.58302 22073 ft 426 kts 217°
2026-05-05 19:58 55.45408 -4.61269 22066 ft 424 kts 217°
2026-05-05 19:58 55.42988 -4.64215 22071 ft 422 kts 217°
2026-05-05 19:58 55.40571 -4.67156 22074 ft 422 kts 217°
2026-05-05 19:59 55.38191 -4.70048 22075 ft 422 kts 217°
2026-05-05 19:59 55.35744 -4.73019 22076 ft 422 kts 217°
2026-05-05 19:59 55.33326 -4.75946 22076 ft 422 kts 217°
2026-05-05 19:59 55.30879 -4.78827 22073 ft 424 kts 213°
2026-05-05 20:00 55.28283 -4.81291 22080 ft 426 kts 209°
2026-05-05 20:00 55.25659 -4.83572 22068 ft 427 kts 208°
2026-05-05 20:00 55.22956 -4.85873 22060 ft 427 kts 208°
2026-05-05 20:00 55.20280 -4.88156 22069 ft 427 kts 208°
2026-05-05 20:01 55.17612 -4.90452 22064 ft 428 kts 208°
2026-05-05 20:01 55.14947 -4.92763 22056 ft 428 kts 209°
2026-05-05 20:01 55.12286 -4.95080 22059 ft 427 kts 209°
2026-05-05 20:01 55.09630 -4.97397 22061 ft 427 kts 209°
2026-05-05 20:02 55.06972 -4.99715 22065 ft 427 kts 209°
2026-05-05 20:02 55.04312 -5.02032 22063 ft 427 kts 209°
2026-05-05 20:02 55.01655 -5.04343 22060 ft 427 kts 209°
2026-05-05 20:02 54.98993 -5.06653 22057 ft 427 kts 209°
2026-05-05 20:03 54.96336 -5.08956 22059 ft 427 kts 209°
2026-05-05 20:03 54.93682 -5.11253 22061 ft 427 kts 209°
2026-05-05 20:03 54.91022 -5.13550 22064 ft 427 kts 209°
2026-05-05 20:03 54.88326 -5.15702 22055 ft 428 kts 203°
2026-05-05 20:04 54.85451 -5.17152 22063 ft 431 kts 194°
2026-05-05 20:04 54.82514 -5.18203 22060 ft 432 kts 194°
2026-05-05 20:04 54.79569 -5.19224 22055 ft 432 kts 194°
2026-05-05 20:04 54.76623 -5.20253 22057 ft 432 kts 194°
2026-05-05 20:05 54.73677 -5.21301 22055 ft 432 kts 194°
2026-05-05 20:05 54.70736 -5.22365 22060 ft 432 kts 194°
2026-05-05 20:05 54.67797 -5.23439 22059 ft 432 kts 194°
2026-05-05 20:05 54.64894 -5.24502 22053 ft 432 kts 194°
2026-05-05 20:06 54.61953 -5.25580 22064 ft 432 kts 194°
2026-05-05 20:06 54.59016 -5.26654 22059 ft 432 kts 194°
2026-05-05 20:06 54.56101 -5.27716 22044 ft 421 kts 194°
2026-05-05 20:06 54.53277 -5.28741 22046 ft 410 kts 194°
2026-05-05 20:07 54.50501 -5.29756 22043 ft 406 kts 195°
2026-05-05 20:07 54.47804 -5.31189 22049 ft 405 kts 205°
2026-05-05 20:07 54.45260 -5.33258 21771 ft 406 kts 209°
2026-05-05 20:07 54.42761 -5.35410 21323 ft 400 kts 209°
2026-05-05 20:08 54.40292 -5.37548 20833 ft 394 kts 209°
2026-05-05 20:08 54.37848 -5.39650 20289 ft 390 kts 209°
2026-05-05 20:08 54.35427 -5.41713 19778 ft 386 kts 209°
2026-05-05 20:08 54.33027 -5.43740 19270 ft 383 kts 209°
2026-05-05 20:09 54.30647 -5.45740 18779 ft 380 kts 209°
2026-05-05 20:09 54.28280 -5.47724 18255 ft 377 kts 209°
2026-05-05 20:09 54.25930 -5.49689 17693 ft 375 kts 208°
2026-05-05 20:09 54.23599 -5.51636 17170 ft 371 kts 208°
2026-05-05 20:10 54.21292 -5.53560 16649 ft 367 kts 208°
2026-05-05 20:10 54.19007 -5.55466 16167 ft 364 kts 208°
2026-05-05 20:10 54.16740 -5.57351 15674 ft 361 kts 208°
2026-05-05 20:10 54.14493 -5.59218 15187 ft 358 kts 208°
2026-05-05 20:11 54.12258 -5.61080 14718 ft 356 kts 208°
2026-05-05 20:11 54.10045 -5.62928 14234 ft 354 kts 209°
2026-05-05 20:11 54.07843 -5.64766 13743 ft 352 kts 209°
2026-05-05 20:11 54.05649 -5.66596 13220 ft 350 kts 208°
2026-05-05 20:12 54.03473 -5.68409 12736 ft 347 kts 208°
2026-05-05 20:12 54.01315 -5.70203 12267 ft 344 kts 208°
2026-05-05 20:12 53.99171 -5.71982 11790 ft 342 kts 208°
2026-05-05 20:12 53.96987 -5.73546 11316 ft 342 kts 199°
2026-05-05 20:13 53.94668 -5.74395 10916 ft 340 kts 187°
2026-05-05 20:13 53.92351 -5.74613 10800 ft 328 kts 184°
2026-05-05 20:13 53.90103 -5.74746 10650 ft 318 kts 183°
2026-05-05 20:13 53.87926 -5.74868 10515 ft 308 kts 183°
2026-05-05 20:14 53.85811 -5.74994 10387 ft 299 kts 184°
2026-05-05 20:14 53.83762 -5.75125 10261 ft 290 kts 184°
2026-05-05 20:14 53.81770 -5.75258 10141 ft 282 kts 184°
2026-05-05 20:14 53.79837 -5.75390 9976 ft 276 kts 184°
2026-05-05 20:15 53.77922 -5.75525 9645 ft 273 kts 184°
2026-05-05 20:15 53.76052 -5.75656 9356 ft 265 kts 184°
2026-05-05 20:15 53.74215 -5.75786 9087 ft 263 kts 184°
2026-05-05 20:15 53.72397 -5.75915 8808 ft 259 kts 184°
2026-05-05 20:16 53.70623 -5.76041 8544 ft 253 kts 184°
2026-05-05 20:16 53.68874 -5.76165 8346 ft 246 kts 184°
2026-05-05 20:16 53.67203 -5.76282 8230 ft 236 kts 184°
2026-05-05 20:16 53.65593 -5.76396 8124 ft 227 kts 184°
2026-05-05 20:17 53.64035 -5.76505 8044 ft 222 kts 184°
2026-05-05 20:17 53.62469 -5.76644 7818 ft 231 kts 188°
2026-05-05 20:17 53.60846 -5.77065 7289 ft 236 kts 192°
2026-05-05 20:17 53.59250 -5.77563 6978 ft 230 kts 192°
2026-05-05 20:18 53.57695 -5.78047 6667 ft 225 kts 192°
2026-05-05 20:18 53.56162 -5.78514 6354 ft 223 kts 192°
2026-05-05 20:18 53.54631 -5.78971 6051 ft 224 kts 192°
2026-05-05 20:18 53.53095 -5.79422 5737 ft 224 kts 192°
2026-05-05 20:19 53.51559 -5.79869 5428 ft 224 kts 192°
2026-05-05 20:19 53.50021 -5.80316 5121 ft 224 kts 191°
2026-05-05 20:19 53.48487 -5.80793 4806 ft 224 kts 198°
2026-05-05 20:19 53.47201 -5.82148 4480 ft 217 kts 229°
2026-05-05 20:20 53.46186 -5.83994 4250 ft 214 kts 231°
2026-05-05 20:20 53.45181 -5.85808 4019 ft 211 kts 230°
2026-05-05 20:20 53.44185 -5.87597 3788 ft 207 kts 230°
2026-05-05 20:20 53.43211 -5.89344 3586 ft 203 kts 230°
2026-05-05 20:21 53.42253 -5.91060 3370 ft 199 kts 230°
2026-05-05 20:21 53.41320 -5.92730 3172 ft 193 kts 230°
2026-05-05 20:21 53.40658 -5.94613 2971 ft 186 kts 267°
2026-05-05 20:21 53.40654 -5.96711 2852 ft 176 kts 274°
2026-05-05 20:22 53.40666 -5.98710 2688 ft 168 kts 276°
2026-05-05 20:22 53.40734 -6.00661 2594 ft 164 kts 278°
2026-05-05 20:22 53.40821 -6.02494 2519 ft 152 kts 279°
2026-05-05 20:22 53.40912 -6.04251 2523 ft 151 kts 279°
2026-05-05 20:23 53.41005 -6.06012 2493 ft 153 kts 279°
2026-05-05 20:23 53.41099 -6.07791 2317 ft 153 kts 279°
2026-05-05 20:23 53.41192 -6.09548 2114 ft 150 kts 279°
2026-05-05 20:23 53.41284 -6.11282 1913 ft 149 kts 278°
2026-05-05 20:24 53.41377 -6.13022 1709 ft 150 kts 278°
2026-05-05 20:24 53.41470 -6.14761 1502 ft 149 kts 277°
2026-05-05 20:24 53.41563 -6.16496 1289 ft 149 kts 277°
2026-05-05 20:24 53.41660 -6.18225 1112 ft 149 kts 277°
2026-05-05 20:25 53.41751 -6.19967 948 ft 152 kts 274°
2026-05-05 20:25 53.41836 -6.21744 727 ft 153 kts 276°
2026-05-05 20:25 53.41938 -6.23513 471 ft 153 kts 275°
2026-05-05 20:25 53.42036 -6.25265 240 ft 150 kts 275°
2026-05-05 20:26 53.42126 -6.26886 211 ft 126 kts 275°
2026-05-05 20:26 53.42184 -6.27937 211 ft 51 kts 276°
2026-05-05 20:26 53.42271 -6.28283 211 ft 22 kts 316°
2026-05-05 20:26 53.42372 -6.28266 219 ft 14 kts 78°
2026-05-05 20:27 53.42366 -6.28110 210 ft 13 kts 95°
2026-05-05 20:27 53.42358 -6.27956 210 ft 15 kts 95°
2026-05-05 20:27 53.42346 -6.27743 214 ft 22 kts 95°
2026-05-05 20:27 53.42330 -6.27457 210 ft 27 kts 95°
2026-05-05 20:28 53.42313 -6.27132 214 ft 28 kts 95°
2026-05-05 20:28 53.42295 -6.26815 210 ft 26 kts 95°
2026-05-05 20:28 53.42279 -6.26519 216 ft 25 kts 95°
2026-05-05 20:28 53.42270 -6.26242 210 ft 23 kts 82°
2026-05-05 20:29 53.42347 -6.26018 214 ft 22 kts 47°
2026-05-05 20:29 53.42441 -6.25880 214 ft 11 kts 12°
2026-05-05 20:29 53.42489 -6.25931 210 ft 7 kts 268°
2026-05-05 20:29 53.42459 -6.25999 210 ft 7 kts 225°
2026-05-05 20:30 53.42431 -6.26048 210 ft 2 kts 225°
2026-05-05 20:30 53.42429 -6.26050 210 ft 0 kts 225°